EW7112 Weather Reports


Display with metric or nautical units.
time (UTC)temp
F
wind
direction
speed
MPH
gust
MPH
rain 1hr
in
rain 24hr
in
rain mn
in
humidity
%
barometer
mb
20260509221526 89 124 1.0 4.0 0.00 0.00 0.00 45 985.6
20260509220021 89 319 0.0 4.0 0.00 0.00 0.00 41 985.7
20260509214530 88 305 1.0 6.0 0.00 0.00 0.00 43 985.8
20260509213019 89 66 1.0 5.0 0.00 0.00 0.00 44 985.9
20260509211521 88 13 2.0 6.0 0.00 0.00 0.00 44 986.2
20260509210015 89 138 2.0 7.0 0.00 0.00 0.00 49 986.4
20260509204524 88 6 2.0 6.0 0.00 0.00 0.00 47 986.7
20260509203010 88 218 2.0 6.0 0.00 0.00 0.00 47 986.9
20260509201508 88 11 3.0 8.0 0.00 0.00 0.00 49 987.1
20260509200009 87 5 1.0 5.0 0.00 0.00 0.00 51 987.3
20260509194506 87 349 2.0 6.0 0.00 0.00 0.00 51 987.5
20260509193003 87 68 2.0 7.0 0.00 0.00 0.00 54 987.6
20260509191504 86 46 2.0 5.0 0.00 0.00 0.00 57 987.6
20260509190106 86 99 2.0 6.0 0.00 0.00 0.00 59 987.7
20260509184558 85 247 1.0 5.0 0.00 0.00 0.00 62 987.8
20260509183055 85 49 3.0 6.0 0.00 0.00 0.00 63 987.9
20260509181603 84 357 2.0 8.0 0.00 0.00 0.00 62 988.2
20260509180050 85 50 3.0 9.0 0.00 0.00 0.00 63 988.2
20260509174557 84 359 3.0 10.0 0.00 0.00 0.00 64 988.4
20260509173050 83 76 3.0 8.0 0.00 0.00 0.00 64 988.4
20260509171549 83 7 2.0 5.0 0.00 0.00 0.00 64 988.6
20260509170043 82 304 4.0 7.0 0.00 0.00 0.00 62 988.7
20260509164539 82 313 3.0 6.0 0.00 0.00 0.00 61 988.8
20260509163035 82 322 2.0 7.0 0.00 0.00 0.00 62 988.8
20260509161532 81 1 3.0 7.0 0.00 0.00 0.00 63 988.7
20260509160030 80 17 3.0 7.0 0.00 0.00 0.00 64 988.7
20260509154529 80 71 2.0 5.0 0.00 0.00 0.00 64 988.6
20260509153029 79 309 1.0 5.0 0.00 0.00 0.00 66 988.7
20260509151520 78 304 2.0 7.0 0.00 0.00 0.00 68 988.7
20260509150020 77 286 3.0 7.0 0.00 0.00 0.00 71 988.8
20260509144515 76 306 1.0 5.0 0.00 0.00 0.00 74 988.9
20260509143017 75 336 1.0 8.0 0.00 0.00 0.00 77 988.8
20260509141507 74 324 3.0 6.0 0.00 0.00 0.00 78 988.8
20260509140005 74 32 1.0 7.0 0.00 0.00 0.00 79 988.8
20260509134502 73 20 1.0 5.0 0.00 0.00 0.00 82 988.7
20260509133104 71 321 1.0 6.0 0.00 0.00 0.00 84 988.6
20260509131559 70 1 1.0 7.0 0.00 0.00 0.00 85 988.6
20260509130104 69 344 2.0 6.0 0.00 0.00 0.00 86 988.6
20260509124557 69 303 1.0 7.0 0.00 0.13 0.00 87 988.4
20260509123050 68 70 2.0 8.0 0.00 0.13 0.00 87 988.5
20260509121559 68 304 2.0 5.0 0.00 0.13 0.00 87 988.5
20260509120045 68 328 2.0 8.0 0.00 0.13 0.00 86 988.4
20260509114545 68 299 3.0 5.0 0.00 0.13 0.00 86 988.3
20260509113047 68 318 2.0 7.0 0.00 0.13 0.00 85 987.9
20260509111539 67 319 2.0 6.0 0.00 0.13 0.00 86 987.5
20260509110038 67 311 0.0 2.0 0.00 0.13 0.00 86 987.2
20260509104537 68 312 0.0 2.0 0.00 0.52 0.00 86 986.9
20260509103036 68 312 0.0 1.0 0.00 0.52 0.00 86 986.8
20260509101532 69 312 0.0 2.0 0.00 0.52 0.00 85 986.7
20260509100032 70 312 0.0 1.0 0.00 0.52 0.00 84 986.7
20260509094529 70 312 0.0 2.0 0.00 0.66 0.00 83 986.3
20260509093029 71 252 1.0 5.0 0.00 0.66 0.00 83 986.1
20260509091528 71 146 0.0 2.0 0.00 0.66 0.00 84 985.9
20260509090028 71 319 1.0 4.0 0.00 0.66 0.00 85 986.4
20260509084535 71 205 2.0 7.0 0.00 0.67 0.00 85 985.0
20260509083038 71 127 2.0 8.0 0.00 0.67 0.00 84 984.1
20260509081524 71 150 3.0 12.0 0.00 0.67 0.00 85 984.9
20260509080025 71 194 4.0 8.0 0.00 0.67 0.00 84 985.9
20260509074514 71 257 4.0 10.0 0.00 0.97 0.00 85 986.9
20260509073012 71 264 3.0 8.0 0.00 0.97 0.00 85 987.3
20260509071512 70 203 2.0 7.0 0.00 0.97 0.00 86 988.1
20260509070009 70 250 1.0 7.0 0.00 0.97 0.00 86 988.3
20260509064506 70 200 1.0 6.0 0.00 0.97 0.00 86 988.8
20260509063005 70 285 1.0 4.0 0.00 0.97 0.00 86 988.7
20260509061504 69 212 0.0 4.0 0.00 0.97 0.00 85 988.6
20260509060008 69 216 0.0 1.0 0.00 0.97 0.00 85 988.7
20260509054613 69 174 0.0 2.0 0.00 0.97 0.00 84 988.6
20260509053133 71 353 0.0 1.0 0.00 0.97 0.00 83 989.5
20260509051555 71 353 0.0 1.0 0.00 0.97 0.00 82 989.6
20260509050050 71 338 1.0 4.0 0.00 0.97 0.00 82 989.8
20260509044549 71 203 0.0 2.0 0.00 0.97 0.97 81 988.4
20260509043104 72 128 0.0 2.0 0.00 0.97 0.97 80 988.7
20260509041559 72 181 0.0 5.0 0.00 0.97 0.97 80 988.2
20260509040055 72 155 0.0 3.0 0.00 0.97 0.97 79 988.0
20260509034601 72 163 1.0 4.0 0.00 0.97 0.97 79 987.8
20260509033046 73 53 0.0 4.0 0.00 0.97 0.97 78 988.8
20260509031548 73 27 1.0 4.0 0.00 0.97 0.97 78 988.8
20260509030046 73 74 2.0 5.0 0.00 0.97 0.97 78 987.9
20260509024544 73 145 0.0 4.0 0.00 0.97 0.97 78 987.5
20260509023049 73 113 0.0 5.0 0.00 0.97 0.97 78 987.1
20260509021543 73 249 1.0 7.0 0.00 0.97 0.97 78 986.5
20260509020051 73 168 1.0 2.0 0.00 0.97 0.97 78 986.6
20260509014541 73 110 1.0 7.0 0.00 0.97 0.97 77 986.4
20260509013049 73 159 0.0 4.0 0.00 0.97 0.97 77 986.9
20260509011540 73 205 0.0 2.0 0.00 0.97 0.97 76 987.0
20260509010050 73 103 0.0 4.0 0.00 0.97 0.97 76 986.7
20260509004536 73 78 1.0 6.0 0.00 0.97 0.97 76 986.6
20260509003036 74 74 2.0 5.0 0.00 0.97 0.97 74 986.3
20260509001535 74 134 2.0 8.0 0.00 0.97 0.97 73 986.2
20260509000033 75 249 3.0 7.0 0.00 0.97 0.97 72 986.2
20260508234529 75 159 2.0 7.0 0.00 0.97 0.97 71 986.6
20260508233028 75 152 2.0 8.0 0.00 0.97 0.97 70 986.7
20260508231528 76 215 1.0 6.0 0.00 0.97 0.97 69 986.7
20260508230036 76 240 2.0 6.0 0.00 0.97 0.97 68 986.8
20260508224534 77 170 2.0 7.0 0.00 0.97 0.97 66 986.6
20260508223021 76 113 2.0 9.0 0.00 0.97 0.97 68 986.9